Location: Berg
(47.2344°N, 9.5296°E)
Time: 16:39:46
(UTC+00:00)

Daily predictions for brighter satellites

Satellite Brightness Start Highest point End
(mag) Time Altitude Azimuth Time Altitude Azimuth Time Altitude Azimuth
Cosmos 1833 Rocket 4.1 16:43:49 10° N 16:47:41 18° NE 16:51:31 10° E
Cosmos 1626 3.8 16:44:33 10° SW 16:47:57 35° WNW 16:51:24 10° N
USA 229 DEB 4.4 16:43:44 10° NW 16:50:21 38° NNE 16:57:20 10° E
USA 229 4.4 16:43:51 10° NW 16:50:27 37° NNE 16:57:24 10° E
Meteor 2-5 Rocket 4.2 16:46:15 10° SSW 16:51:46 65° WNW 16:57:17 10° N
CZ-4B R/B 2.5 16:49:23 10° NE 16:52:13 25° E 16:54:58 10° SSE
X-37B 1.5 16:50:56 10° WSW 16:53:57 41° SSE 16:56:59 10° E
Meteor 2-10 Rocket 3.6 16:50:41 10° N 16:56:10 71° ENE 17:01:23 10° SSE
Cosmos 2082 Rocket 3.9 16:55:05 10° N 16:58:11 15° NE 17:01:10 10° ENE
Cosmos 1844 4.1 16:52:54 10° S 16:58:16 46° ESE 17:03:43 10° NE
AQUARIUS 4.4 16:55:05 10° S 16:59:34 75° WSW 17:04:05 10° NNW
OE (NEXTSAT) 4.4 16:56:13 10° W 16:59:39 73° S 17:03:01 10° E
NOSS 3-1 (A) 4.4 16:59:15 10° NW 17:05:58 41° NE 17:13:45 10° ESE
Cosmos 2058 Rocket 3.1 17:02:20 10° N 17:06:53 82° E 17:11:24 10° S
MOS 1 Rocket 3.8 17:03:08 10° NNE 17:06:59 31° E 17:10:49 10° SSE
Cosmos 1844 Rocket 2.7 17:01:43 10° SSW 17:07:19 65° ESE 17:12:55 10° NNE
SeaSat 1 4.2 17:03:47 10° N 17:07:59 29° NW 17:12:11 10° WSW
Nadezhda 4 Rocket 4.1 17:02:48 10° SSE 17:08:52 56° E 17:14:54 10° NNE
Cosmos 158 Rocket 4.0 17:03:54 10° NNW 17:09:15 65° ENE 17:14:36 10° SSE
H-2A R/B 3.7 17:05:22 10° S 17:09:17 46° W 17:13:24 10° NNW
Meteor 1-24 Rocket 4.3 17:04:18 10° SSW 17:09:31 57° WNW 17:14:46 10° N
Cosmos 1726 Rocket 4.4 17:07:19 10° NNW 17:11:37 56° W 17:15:55 10° S
ATLAS 2AS CENTAUR R/B 4.2 17:04:49 10° W 17:11:47 32° NNW 17:18:34 10° NE
Cosmos 1689 Rocket 3.8 17:15:06 15° ESE 17:15:06 15° ESE 17:16:29 10° SE
Aureole 3 2.8 17:13:18 10° N 17:16:32 49° ENE 17:19:26 10° SSE
Helios 1A Rocket 4.0 17:14:29 10° ESE 17:17:53 25° ENE 17:21:16 10° N
Cosmos 1626 Rocket 3.8 17:16:58 10° SSE 17:21:09 45° E 17:25:24 10° NNE
Cosmos 2278 Rocket 3.5 17:23:24 10° SE 17:27:15 19° E 17:28:30 18° E
Cosmos 405 4.0 17:25:34 10° NNE 17:28:30 24° ENE 17:29:22 21° E
ATLAS 5 CENTAUR R/B 3.5 17:26:04 10° WNW 17:29:23 21° NNW 17:33:04 10° NNE
Okean 1-7 Rocket 3.8 17:24:50 10° SSW 17:29:23 80° W 17:34:00 10° N
Cosmos 1328 4.5 17:26:50 10° SSE 17:30:26 33° E 17:33:29 13° NNE
CSL-04 Rocket 4.3 17:26:30 10° SE 17:31:16 33° ENE 17:36:08 10° N
Iridium 4 Rocket 3.9 17:28:11 10° N 17:33:27 41° E 17:38:17 10° SSE
USA 234 4.0 17:29:30 16° ENE 17:34:08 38° N 17:40:05 10° WNW
Lacrosse 5 2.9 17:30:04 10° WNW 17:34:55 47° SW 17:39:43 10° SSE
Cosmos 923 Rocket 4.1 17:29:59 10° NNW 17:35:22 87° WSW 17:40:40 10° SSE
Cosmos 1939 Rocket 3.6 17:33:27 10° S 17:37:30 58° W 17:41:32 10° NNW
COSMO-SKYMED 1 2.5 17:33:26 10° NNE 17:37:49 83° ESE 17:42:09 10° SSW
Cosmos 1898 Rocket 3.7 17:33:54 10° S 17:38:56 48° ESE 17:43:15 14° NE
Cosmos 1680 Rocket 3.4 17:35:57 10° NNW 17:41:14 82° ENE 17:46:26 10° SSE
CZ-4C R/B 4.1 17:37:30 10° WNW 17:41:47 21° NNW 17:46:31 10° NE
CREW DRAGON DEMO-1 DEB 4.2 17:39:41 10° WNW 17:42:21 34° SW 17:44:38 13° SSE
Aureole 3 Rocket 2.8 17:40:33 10° N 17:43:26 36° ENE 17:46:46 10° SSE
Cosmos 2026 Rocket 4.1 17:39:09 10° SSE 17:45:01 51° E 17:51:00 10° NNE
Cosmos 1758 Rocket 4.2 17:41:28 10° SSE 17:45:28 34° E 17:47:30 23° NE
Meteor 2-8 Rocket 4.4 17:39:34 10° N 17:45:38 61° ENE 17:51:40 10° SSE
Cosmos 1553 Rocket 4.5 17:40:50 10° N 17:46:47 38° ENE 17:52:38 10° SE
CZ-2D R/B 3.6 17:44:18 10° S 17:48:07 65° W 17:51:57 10° NNW
ISS -3.4 17:44:59 10° W 17:48:19 55° NNW 17:49:25 36° NE
NOSS 2-1 (E) 3.1 17:45:54 10° SSW 17:49:08 49° SE 17:49:50 40° E
IRS-1C Rocket 4.2 17:47:00 10° SSE 17:52:15 81° WSW 17:57:33 10° NNW
H-2A R/B 1.9 17:47:29 10° SSE 17:52:27 67° ENE 17:57:35 10° N
Cosmos 1340 2.6 17:49:00 10° S 17:52:41 59° E 17:54:46 24° NNE
ERS-2 2.0 17:50:25 17° NNE 17:53:08 72° ESE 17:56:45 10° S
Meteor 1-21 Rocket 4.2 17:48:35 10° SSW 17:54:07 82° WNW 17:59:44 10° N
Cosmos 1455 3.3 17:50:56 10° NNW 17:54:37 46° W 17:58:18 10° SSW
Cosmos 2098 Rocket 4.4 17:47:46 10° SSE 17:54:48 54° E 18:01:54 10° NNE
Cosmos-2242 3.3 17:52:41 10° N 17:56:46 41° ENE 17:59:06 22° SE
NOAA 15 4.5 17:52:11 10° SSE 17:57:26 79° ENE 18:02:43 10° NNW
CZ-4 R/B 1.3 17:54:01 10° SSE 17:58:06 88° WSW 18:02:07 10° NNW
Cosmos 2263 Rocket 4.5 17:55:55 10° W 17:59:41 18° NW 18:03:27 10° N
TELKOM 3 4.3 17:58:45 10° WNW 18:00:26 33° NW 18:00:26 33° NW
H-2A R/B 4.3 17:58:44 10° N 18:02:21 25° WNW 18:05:54 10° WSW
Cosmos 1602 Rocket 3.5 17:58:34 10° S 18:02:55 89° WNW 18:07:19 10° N
ARGOS 3.1 17:57:51 10° SSE 18:03:06 60° ENE 18:08:25 10° N
COSMOS 2455 4.1 18:00:06 10° WSW 18:05:39 37° NW 18:11:09 10° NNE
Okean O Rocket 4.4 18:02:33 10° SW 18:05:49 20° W 18:09:06 10° NW
YAOGAN 1 2.5 18:02:57 10° SSE 18:07:17 84° WSW 18:11:39 10° NNW
Cosmos 1937 Rocket 3.5 18:02:38 10° S 18:07:51 63° ESE 18:10:48 26° NE
Cosmos 1818 4.5 18:03:38 10° WSW 18:08:51 45° NW 18:12:52 17° NNE
Okean-O 2.7 18:05:28 10° S 18:09:53 77° WSW 18:14:21 10° NNW
PSLV R/B 3.9 18:06:05 12° NNE 18:09:58 88° W 18:14:11 10° SSW
S3M 4.3 18:05:14 10° N 18:10:56 39° ENE 18:12:25 34° ESE
Cosmos 2195 Rocket 4.5 18:05:17 10° S 18:11:37 89° W 18:18:01 10° N
CZ-2C R/B 3.0 18:10:30 34° ENE 18:12:12 42° E 18:17:29 10° SSE
Cosmos 2344 4.3 18:03:59 10° NW 18:13:11 77° NE 18:26:04 10° SE
CZ-2C R/B 4.1 18:09:47 10° S 18:15:00 50° W 18:20:31 10° NNW
Meteor 2-15 Rocket 4.4 18:09:49 10° N 18:15:55 59° ENE 18:21:58 10° SSE
SJ 16-02 3.0 18:12:09 10° SW 18:16:07 32° WNW 18:20:05 10° N
SJ-11-01 4.3 18:13:04 10° S 18:17:45 81° WSW 18:22:28 10° NNW
Cosmos 1825 Rocket 3.8 18:15:02 10° S 18:18:30 47° SE 18:18:30 47° SE
Meteor 1-27 4.2 18:14:19 10° N 18:19:53 56° ENE 18:23:15 23° SE
Cosmos 1812 Rocket 4.1 18:16:40 10° NNW 18:21:00 58° W 18:25:15 10° S
NOSS 3-1 (C) 4.2 18:15:14 10° NW 18:22:44 76° SW 18:31:25 10° SSE
Cosmos 1428 Rocket 4.5 18:16:46 10° S 18:23:03 88° W 18:29:26 10° N
CZ-4B R/B 3.9 18:21:43 10° NNW 18:24:18 21° WNW 18:26:50 10° WSW
CSL-04 Debris 4.1 18:19:41 10° SSE 18:25:04 90° E 18:30:30 10° NNW
SAR-Lupe-4 4.1 18:24:42 35° NNW 18:25:57 56° WNW 18:29:27 10° SSW
Cosmos 44 3.8 18:22:52 10° SW 18:27:39 59° NW 18:29:51 32° NNE
X-37B 2.0 18:27:15 10° W 18:29:27 38° WSW 18:29:27 38° WSW
COSMOS 2406 3.1 18:25:04 10° NNW 18:30:53 90° ENE 18:34:24 25° SSE
SL-08 RB Rocket 3.5 18:32:25 77° ENE 18:32:25 77° ENE 18:36:56 10° N
Cosmos 1833 Rocket 2.5 18:26:52 10° NNW 18:32:31 82° ENE 18:34:40 40° SE
NOSS 2-1 (C) 4.1 18:35:11 10° WSW 18:37:54 41° WNW 18:37:54 41° WNW
USA 267 4.2 18:41:52 30° SE 18:41:52 30° SE 18:46:28 10° S
USA 229 DEB 4.0 18:34:38 10° NW 18:41:57 76° SW 18:47:27 21° SSE
USA 229 4.0 18:34:45 10° NW 18:42:03 77° SW 18:47:25 22° SSE
Cosmos 2082 Rocket 2.3 18:37:55 10° NNW 18:43:04 56° NE 18:43:04 56° NE
NOSS 2-1 (D) 4.5 18:41:11 10° WSW 18:43:40 34° WNW 18:43:40 34° WNW
NOSS 3-1 (A) 4.2 18:50:01 10° NW 18:57:32 73° SW 19:02:47 26° SSE
ATLAS 2AS CENTAUR R/B 4.4 18:59:20 10° NW 19:05:16 23° N 19:06:55 21° NNE
Cosmos 2278 Rocket 2.3 19:05:01 10° SSW 19:10:25 73° W 19:10:25 73° W
ATLAS 5 CENTAUR R/B 4.3 19:13:50 10° NNW 19:15:11 12° N 19:15:11 12° N
USA 234 3.5 19:16:51 54° N 19:16:51 54° N 19:22:48 10° NW
ISS -0.2 19:22:20 10° WNW 19:22:23 10° WNW 19:22:23 10° WNW
CZ-4C R/B 4.3 19:27:53 10° NW 19:31:42 21° N 19:31:42 21° N
CZ-2C R/B 4.2 19:51:59 33° WNW 19:52:21 33° WNW 19:57:18 10° SW
